Eveleth, MN

9:33 AM CDT on June 29, 2017 (GMT -0500)
Eveleth-Virginia Municipal

Weather History for KEVM - December, 2013

Change the Weather History Date:

Monday, December 16, 2013

  Actual Average Record
Temperature  
Mean Temperature -2 °F -  
Max Temperature 8 °F 22 °F 41 °F (2001)
Min Temperature -13 °F 6 °F -31 °F (2008)
Degree Days  
Heating Degree Days 68    
Moisture  
Dew Point -6 °F    
Average Humidity 78    
Maximum Humidity 85    
Minimum Humidity 71    
Precipitation  
Precipitation 0.01 in - - ()
Sea Level Pressure  
Sea Level Pressure 29.85 in    
Wind  
Wind Speed 3 mph (SSW)    
Max Wind Speed 14 mph    
Max Gust Speed 17 mph    
Visibility 6 miles    
Events Snow    
Averages and records for this station are not official NWS values.
T = Trace of Precipitation, MM = Missing Value Source: NWS Daily Summary

Daily Weather History Graph

Daily Weather History Graph

Search for Another Location

Airport or City:

Trip Planner

Search our weather history database for the weather conditions in past years. The results will help you decide how hot, cold, wet, or windy it might be!

Date:

Astronomy

Dec. 16, 2013 Rise Set
Actual Time 7:51 AM CST 4:19 PM CST
Civil Twilight 7:15 AM CST 4:55 PM CST
Nautical Twilight 6:36 AM CST 5:34 PM CST
Astronomical Twilight 5:59 AM CST 6:12 PM CST
Moon 4:14 PM CST (12/16) 6:56 AM CST (12/16)
Length of Visible Light 9h 39m
Length of Day
8h 28m
Full, 100% of the Moon is Illuminated
Dec 16
Full
Dec 17
Full
Dec 25
Last Quarter
Jan 1
New
Jan 7
First Quarter

Hourly Weather History & Observations

Time (CST) Temp. Windchill Dew Point Humidity Pressure Visibility Wind Dir Wind Speed Gust Speed Precip Events Conditions
12:07 AM -13.0 °F - -18.4 °F 77% 30.03 in 10.0 mi Calm Calm - N/A   Overcast
12:26 AM -13.0 °F - -18.4 °F 77% 30.03 in 10.0 mi Calm Calm - N/A   Overcast
12:46 AM -9.4 °F - -14.8 °F 77% 30.02 in 10.0 mi Calm Calm - N/A   Overcast
1:07 AM -9.4 °F - -14.8 °F 77% 30.01 in 10.0 mi Calm Calm - N/A   Overcast
1:26 AM -9.4 °F - -16.6 °F 71% 30.01 in 10.0 mi Calm Calm - N/A   Overcast
1:47 AM -9.4 °F -18.6 °F -14.8 °F 77% 30.00 in 10.0 mi SE 3.5 mph - N/A   Overcast
2:07 AM -7.6 °F - -13.0 °F 77% 30.00 in 10.0 mi Calm Calm - N/A   Overcast
2:26 AM -7.6 °F - -13.0 °F 77% 30.00 in 10.0 mi Calm Calm - N/A   Overcast
2:46 AM -7.6 °F - -13.0 °F 77% 30.01 in 10.0 mi Calm Calm - N/A   Overcast
3:06 AM -7.6 °F - -13.0 °F 77% 30.01 in 10.0 mi Calm Calm - N/A   Overcast
3:26 AM -7.6 °F -16.5 °F -13.0 °F 77% 29.99 in 10.0 mi SE 3.5 mph - N/A   Overcast
3:47 AM -7.6 °F - -13.0 °F 77% 29.98 in 10.0 mi Calm Calm - N/A   Overcast
4:06 AM -5.8 °F - -13.0 °F 71% 29.98 in 10.0 mi Calm Calm - N/A   Overcast
4:26 AM -5.8 °F - -9.4 °F 84% 29.97 in 10.0 mi Calm Calm - N/A   Overcast
4:47 AM -5.8 °F - -9.4 °F 84% 29.96 in 10.0 mi Calm Calm - N/A   Overcast
5:07 AM -2.2 °F - -7.6 °F 78% 29.94 in 10.0 mi Calm Calm - N/A   Overcast
5:26 AM -2.2 °F -12.5 °F -7.6 °F 78% 29.93 in 10.0 mi SSE 4.6 mph - N/A   Overcast
5:47 AM -2.2 °F -14.2 °F -9.4 °F 71% 29.93 in 10.0 mi SSE 5.8 mph - N/A   Overcast
6:07 AM -2.2 °F -10.4 °F -7.6 °F 78% 29.92 in 10.0 mi South 3.5 mph - N/A   Overcast
6:26 AM -0.4 °F -12.0 °F -7.6 °F 72% 29.93 in 10.0 mi SSW 5.8 mph - N/A   Overcast
6:46 AM -0.4 °F -10.4 °F -7.6 °F 72% 29.93 in 10.0 mi South 4.6 mph - N/A   Overcast
7:07 AM -0.4 °F -14.7 °F -7.6 °F 72% 29.92 in 10.0 mi SSW 8.1 mph - N/A   Overcast
7:26 AM -0.4 °F -12.0 °F -7.6 °F 72% 29.91 in 10.0 mi South 5.8 mph - N/A   Overcast
7:46 AM -0.4 °F -10.4 °F -7.6 °F 72% 29.90 in 10.0 mi South 4.6 mph - N/A   Overcast
8:07 AM -0.4 °F -15.7 °F -7.6 °F 72% 29.89 in 4.0 mi South 9.2 mph - N/A Snow Light Snow
8:26 AM -0.4 °F -17.6 °F -5.8 °F 78% 29.87 in 3.0 mi SSE 11.5 mph - N/A Snow Light Snow
8:46 AM -0.4 °F -16.7 °F -5.8 °F 78% 29.83 in 2.5 mi SSE 10.4 mph - N/A Snow Light Snow
9:06 AM 1.4 °F -12.5 °F -4.0 °F 78% 29.81 in 2.0 mi SSE 8.1 mph - N/A Snow Light Snow
9:27 AM 3.2 °F -9.1 °F -2.2 °F 78% 29.88 in 0.5 mi WSW 6.9 mph - N/A Snow Snow
9:46 AM 1.4 °F -14.5 °F -4.0 °F 78% 29.85 in 0.2 mi SSE 10.4 mph - N/A Snow Snow
10:06 AM 3.2 °F -7.8 °F -4.0 °F 72% 29.86 in 0.8 mi South 5.8 mph - N/A Snow Light Snow
10:26 AM 3.2 °F -7.8 °F -4.0 °F 72% 29.86 in 1.0 mi South 5.8 mph - 0.01 in Snow Light Snow
10:47 AM 3.2 °F -10.3 °F -4.0 °F 72% 29.86 in 1.0 mi South 8.1 mph - 0.01 in Snow Light Snow
11:06 AM 3.2 °F -10.3 °F -4.0 °F 72% 29.86 in 1.2 mi SSW 8.1 mph - N/A Snow Light Snow
11:26 AM 3.2 °F -13.1 °F -2.2 °F 78% 29.83 in 3.0 mi SSW 11.5 mph - N/A Snow Light Snow
11:47 AM 3.2 °F -14.6 °F -2.2 °F 78% 29.82 in 3.0 mi SSW 13.8 mph 17.3 mph N/A Snow Light Snow
12:06 PM 3.2 °F -12.2 °F -2.2 °F 78% 29.81 in 2.5 mi SSW 10.4 mph - N/A Snow Light Snow
12:26 PM 3.2 °F -12.2 °F -0.4 °F 85% 29.81 in 3.0 mi SW 10.4 mph - N/A Snow Light Snow
12:47 PM 5.0 °F -9.1 °F -0.4 °F 78% 29.81 in 4.0 mi SSW 9.2 mph - N/A Snow Light Snow
1:06 PM 5.0 °F -10.8 °F -0.4 °F 78% 29.80 in 4.0 mi SSW 11.5 mph 16.1 mph N/A Snow Light Snow
1:26 PM 5.0 °F -6.9 °F -0.4 °F 78% 29.80 in 3.0 mi SSW 6.9 mph - N/A Snow Light Snow
1:47 PM 5.0 °F -9.1 °F -0.4 °F 78% 29.80 in 2.0 mi SSW 9.2 mph - N/A Snow Light Snow
2:06 PM 5.0 °F -6.9 °F -0.4 °F 78% 29.80 in 2.0 mi SW 6.9 mph - N/A Snow Light Snow
2:26 PM 5.0 °F -8.1 °F -0.4 °F 78% 29.79 in 4.0 mi SW 8.1 mph - N/A Snow Light Snow
2:47 PM 6.8 °F -4.8 °F 1.4 °F 79% 29.80 in 5.0 mi SW 6.9 mph - N/A Snow Light Snow
3:07 PM 6.8 °F -4.8 °F 1.4 °F 79% 29.80 in 2.5 mi SW 6.9 mph - N/A Snow Light Snow
3:26 PM 6.8 °F -5.9 °F 1.4 °F 79% 29.80 in 1.8 mi SSW 8.1 mph - N/A Snow Light Snow
3:47 PM 6.8 °F -5.9 °F 1.4 °F 79% 29.81 in 3.0 mi SW 8.1 mph - N/A Snow Light Snow
4:07 PM 6.8 °F -3.5 °F 1.4 °F 79% 29.80 in 3.0 mi SSW 5.8 mph - N/A Snow Light Snow
4:26 PM 6.8 °F -2.0 °F 1.4 °F 79% 29.80 in 4.0 mi SW 4.6 mph - N/A Snow Light Snow
4:47 PM 8.6 °F - 3.2 °F 79% 29.80 in 4.0 mi Calm Calm - N/A Snow Light Snow
5:06 PM 8.6 °F 0.1 °F 3.2 °F 79% 29.80 in 7.0 mi SSW 4.6 mph - N/A Snow Light Snow
5:27 PM 6.8 °F -2.0 °F 3.2 °F 85% 29.78 in 5.0 mi SSW 4.6 mph - N/A Snow Light Snow
5:47 PM 5.0 °F -5.6 °F 1.4 °F 85% 29.78 in 3.0 mi SSW 5.8 mph - N/A Snow Light Snow
6:06 PM 5.0 °F -4.1 °F 1.4 °F 85% 29.78 in 2.0 mi SSW 4.6 mph - N/A Snow Light Snow
6:27 PM 5.0 °F -4.1 °F 1.4 °F 85% 29.78 in 2.5 mi SSW 4.6 mph - N/A Snow Light Snow
6:47 PM 5.0 °F - 1.4 °F 85% 29.77 in 5.0 mi Calm Calm - N/A Snow Light Snow
7:06 PM 5.0 °F - 1.4 °F 85% 29.76 in 5.0 mi Calm Calm - N/A Snow Light Snow
7:27 PM 1.4 °F - -4.0 °F 78% 29.76 in 1.0 mi Calm Calm - N/A Snow Light Snow
7:47 PM -0.4 °F - -5.8 °F 78% 29.76 in 7.0 mi Calm Calm - N/A Snow Light Snow
8:06 PM -0.4 °F - -4.0 °F 85% 29.76 in 7.0 mi Calm Calm - N/A Snow Light Snow
8:27 PM -2.2 °F - -7.6 °F 78% 29.76 in 7.0 mi Calm Calm - N/A Snow Light Snow
8:47 PM -2.2 °F - -7.6 °F 78% 29.74 in 10.0 mi Calm Calm - N/A   Clear
9:06 PM -4.0 °F - -9.4 °F 78% 29.74 in 10.0 mi Calm Calm - N/A Snow Light Snow
9:27 PM -5.8 °F - -9.4 °F 84% 29.74 in 10.0 mi Calm Calm - N/A   Clear
9:46 PM -5.8 °F - -9.4 °F 84% 29.73 in 10.0 mi Calm Calm - N/A   Clear
10:07 PM -7.6 °F - -13.0 °F 77% 29.73 in 10.0 mi Calm Calm - N/A   Clear
10:26 PM -7.6 °F - -13.0 °F 77% 29.73 in 10.0 mi Calm Calm - N/A   Clear
10:47 PM -7.6 °F - -13.0 °F 77% 29.72 in 10.0 mi Calm Calm - N/A   Clear
11:06 PM -7.6 °F - -13.0 °F 77% 29.72 in 10.0 mi Calm Calm - N/A   Clear
11:27 PM -7.6 °F - -13.0 °F 77% 29.73 in 10.0 mi Calm Calm - N/A   Clear
11:47 PM -7.6 °F - -13.0 °F 77% 29.72 in 10.0 mi Calm Calm - N/A   Clear